Location: Colonia Mina de C?rbuni
(46.1667°N, 22.7167°E)
Time: 18:43:56
(UTC+00:00)

Courier 1B - Visible Passes

Search period start: 19 April 2024 00:00
Search period end: 29 April 2024 00:00
Orbit: 962 x 1208 km, 28.3° (Epoch: 18 April)

Date Brightness Start Highest point End Pass type
(mag) Time Alt. Az. Time Alt. Az. Time Alt. Az.
19 Apr 9.3 01:48:58 15° S 01:50:42 16° S 01:54:37 10° SE visible
20 Apr 9.4 00:58:18 14° SSE 00:58:18 14° SSE 01:00:52 10° SE visible
20 Apr 9.2 02:45:47 10° SW 02:50:00 17° S 02:54:05 10° SSE visible
21 Apr 9.2 01:54:31 16° SSW 01:56:27 18° S 02:00:46 10° SE visible
22 Apr 9.3 01:03:54 17° SSE 01:03:54 17° SSE 01:07:17 10° SE visible
22 Apr 9.3 02:51:52 10° SW 02:55:43 15° SSW 02:59:28 10° SSE visible
23 Apr 9.8 00:13:18 11° SE 00:13:18 11° SE 00:13:39 10° SE visible
23 Apr 9.2 02:00:11 15° SSW 02:02:11 17° S 02:06:27 10° SSE visible
24 Apr 9.2 01:09:38 18° S 01:09:38 18° S 01:13:12 10° SE visible
25 Apr 9.7 00:19:11 12° SE 00:19:11 12° SE 00:19:48 10° SE visible
25 Apr 9.3 02:06:04 14° SSW 02:07:51 15° SSW 02:11:33 10° SSE visible
26 Apr 9.3 01:15:42 16° S 01:15:42 16° S 01:18:39 10° SSE visible
27 Apr 9.8 00:25:25 10° SE 00:25:25 10° SE 00:25:29 10° SE visible
27 Apr 9.4 02:12:20 11° SSW 02:13:28 11° SSW 02:15:30 10° S visible
28 Apr 9.5 01:22:12 12° S 01:22:12 12° S 01:23:26 10° SSE visible
